Total_Precipitation_Accumulation
1.04 0.93 0.85 0.77 0.69 0.62 0.62 0.66 0.70 0.69 0.68 0.72 0.73 0.65 0.64 0.57 0.49 0.48 0.43 0.39 0.37 0.51 0.78 1.06 1.34 1.63 1.85 1.92 1.92 1.79 1.70 1.56 1.42 1.30 1.25 1.28 1.39 1.49 1.54 1.49 1.51 1.54 1.52
1.17 1.08 0.99 0.94 0.87 0.77 0.71 0.74 0.79 0.80 0.76 0.72 0.68 0.65 0.63 0.56 0.49 0.48 0.48 0.47 0.42 0.45 0.65 0.91 1.15 1.41 1.74 2.01 2.13 2.07 1.89 1.80 1.74 1.64 1.48 1.41 1.43 1.53 1.63 1.68 1.50 1.43 1.40
1.22 1.08 1.01 0.97 0.95 0.94 0.91 0.86 0.83 0.90 0.86 0.78 0.73 0.70 0.68 0.61 0.55 0.55 0.56 0.55 0.52 0.49 0.57 0.77 0.99 1.20 1.46 1.85 2.22 2.38 2.16 2.03 2.03 1.99 1.79 1.64 1.54 1.58 1.61 1.74 1.78 1.66 1.52
1.27 1.23 1.11 1.02 1.00 1.03 1.05 1.03 0.92 0.89 0.89 0.88 0.83 0.79 0.76 0.73 0.64 0.61 0.64 0.60 0.59 0.55 0.53 0.64 0.79 0.98 1.26 1.56 1.89 2.27 2.38 2.28 2.23 2.22 2.11 1.95 1.75 1.69 1.70 1.75 1.87 1.90 1.82
1.22 1.23 1.18 1.15 1.17 1.17 1.12 1.09 1.02 0.99 0.95 0.92 0.92 0.90 0.89 0.87 0.82 0.75 0.74 0.71 0.67 0.62 0.58 0.59 0.67 0.74 0.95 1.26 1.61 1.99 2.31 2.40 2.35 2.32 2.25 2.17 2.02 1.84 1.82 1.86 1.90 2.02 2.08
1.26 1.31 1.24 1.20 1.23 1.24 1.23 1.26 1.22 1.12 1.06 1.06 1.09 1.04 1.02 0.99 0.90 0.80 0.78 0.78 0.74 0.68 0.70 0.69 0.68 0.64 0.73 0.96 1.30 1.67 2.08 2.37 2.47 2.47 2.45 2.41 2.33 2.20 2.03 2.00 1.98 2.08 2.27
1.37 1.42 1.34 1.27 1.26 1.20 1.12 1.09 1.20 1.24 1.18 1.14 1.16 1.08 0.98 0.95 0.88 0.77 0.79 0.88 0.92 0.91 0.89 0.90 0.89 0.78 0.73 0.83 0.98 1.24 1.64 2.11 2.48 2.63 2.61 2.57 2.57 2.54 2.42 2.26 2.21 2.26 2.40
1.44 1.53 1.56 1.43 1.29 1.22 1.15 1.04 1.02 1.12 1.14 1.13 1.18 1.19 1.06 0.97 0.84 0.71 0.71 0.80 0.88 0.99 1.04 1.03 1.03 1.03 0.92 0.83 0.75 0.83 1.06 1.51 2.10 2.63 2.80 2.80 2.91 2.96 2.86 2.65 2.52 2.55 2.65
1.38 1.38 1.50 1.59 1.52 1.36 1.22 1.11 1.05 1.01 1.06 1.04 1.04 1.27 1.26 1.00 0.77 0.61 0.59 0.64 0.68 0.74 0.82 0.89 0.96 1.02 1.06 1.00 0.86 0.75 0.78 1.08 1.58 2.25 2.90 3.18 3.37 3.60 3.57 3.26 3.00 2.88 2.86
1.45 1.41 1.46 1.51 1.55 1.45 1.31 1.23 1.16 1.07 1.04 1.06 1.01 0.98 1.00 0.97 1.01 0.82 0.57 0.55 0.55 0.57 0.62 0.69 0.76 0.83 0.94 1.01 1.01 0.98 0.94 0.96 1.32 1.82 2.52 3.18 3.66 4.10 4.37 4.09 3.64 3.27 3.09
1.51 1.46 1.48 1.51 1.50 1.43 1.32 1.26 1.18 1.13 1.07 1.03 1.02 0.98 0.89 0.79 0.81 0.92 0.71 0.52 0.55 0.53 0.54 0.62 0.69 0.74 0.79 0.87 0.92 0.98 1.05 1.05 1.25 1.56 1.96 2.58 3.28 4.04 4.61 4.64 4.28 3.86 3.51
1.64 1.54 1.51 1.52 1.47 1.39 1.32 1.27 1.21 1.17 1.11 1.04 1.00 0.97 0.97 0.96 0.83 0.86 0.81 0.56 0.52 0.52 0.54 0.61 0.70 0.77 0.83 0.92 0.99 1.16 1.17 1.17 1.28 1.48 1.61 1.99 2.55 3.32 4.22 4.74 4.67 4.40 4.11
1.66 1.55 1.47 1.47 1.47 1.41 1.34 1.29 1.26 1.23 1.20 1.19 1.12 1.04 0.95 0.87 0.85 0.93 1.00 0.77 0.59 0.49 0.51 0.57 0.62 0.74 0.87 0.97 1.04 1.18 1.16 1.17 1.22 1.36 1.43 1.52 1.79 2.40 3.28 4.22 4.76 4.76 4.58
1.68 1.61 1.58 1.55 1.49 1.47 1.48 1.42 1.32 1.26 1.27 1.25 1.18 1.13 1.11 0.96 0.90 0.95 1.08 1.17 1.06 0.71 0.56 0.51 0.50 0.62 0.80 0.93 1.07 1.22 1.12 1.16 1.15 1.26 1.36 1.39 1.45 1.71 2.27 3.14 4.08 4.76 4.85
1.67 1.64 1.60 1.60 1.58 1.59 1.64 1.65 1.53 1.36 1.32 1.25 1.18 1.16 1.17 1.08 1.00 0.95 0.97 1.17 1.49 1.31 0.76 0.49 0.47 0.54 0.70 0.89 1.09 1.12 1.08 1.22 1.27 1.26 1.32 1.40 1.46 1.57 1.81 2.21 2.94 3.86 4.62
1.68 1.66 1.63 1.56 1.53 1.55 1.64 1.74 1.67 1.49 1.41 1.33 1.25 1.20 1.18 1.12 1.07 1.03 1.03 1.06 1.24 1.45 1.12 0.54 0.48 0.52 0.67 0.84 1.05 1.07 1.06 1.22 1.25 1.29 1.30 1.36 1.47 1.57 1.73 1.93 2.28 2.98 3.79
1.67 1.66 1.61 1.56 1.51 1.51 1.56 1.65 1.67 1.65 1.56 1.45 1.40 1.36 1.24 1.17 1.20 1.15 1.13 1.13 1.14 1.32 1.36 0.71 0.51 0.56 0.72 0.86 0.95 0.99 1.02 1.07 1.09 1.22 1.29 1.35 1.37 1.45 1.60 1.79 1.99 2.37 3.04
1.41 1.55 1.63 1.65 1.59 1.50 1.53 1.64 1.65 1.66 1.66 1.58 1.51 1.46 1.36 1.32 1.30 1.25 1.29 1.25 1.17 1.18 1.35 1.08 0.69 0.63 0.71 0.81 0.89 0.98 1.03 1.07 1.07 1.18 1.24 1.32 1.40 1.48 1.57 1.70 1.88 2.05 2.42
1.47 1.48 1.57 1.61 1.62 1.62 1.60 1.60 1.63 1.66 1.66 1.62 1.61 1.63 1.57 1.54 1.50 1.43 1.43 1.42 1.34 1.25 1.30 1.32 0.97 0.77 0.78 0.87 1.01 1.07 1.11 1.19 1.21 1.30 1.33 1.33 1.44 1.54 1.56 1.66 1.83 1.96 2.06
1.66 1.69 1.64 1.63 1.66 1.73 1.91 1.94 1.83 1.78 1.74 1.68 1.65 1.69 1.71 1.73 1.70 1.70 1.76 1.72 1.70 1.70 1.62 1.57 1.30 1.04 0.98 0.99 1.13 1.22 1.23 1.21 1.29 1.32 1.41 1.37 1.45 1.53 1.55 1.57 1.62 1.68 1.86
1.80 1.80 1.82 1.76 1.75 1.89 2.19 2.35 2.16 2.03 1.93 1.83 1.74 1.71 1.72 1.87 2.03 2.18 2.30 2.20 2.11 2.19 2.11 2.01 1.75 1.47 1.28 1.27 1.33 1.28 1.35 1.31 1.36 1.36 1.36 1.31 1.28 1.28 1.36 1.50 1.63 1.69 1.78
1.92 1.90 1.83 1.79 1.72 1.85 2.33 2.48 2.21 1.97 1.83 1.83 1.81 1.71 1.70 1.81 1.91 2.07 2.26 2.25 2.24 2.42 2.51 2.37 2.11 1.82 1.45 1.32 1.41 1.57 1.70 1.77 1.71 1.45 1.43 1.47 1.37 1.40 1.40 1.42 1.65 1.73 1.81
1.81 1.82 1.79 1.74 1.68 1.72 2.22 2.38 2.18 1.79 1.61 1.61 1.60 1.61 1.61 1.64 1.78 1.66 1.83 1.91 1.93 2.05 2.24 2.35 2.37 1.96 1.67 1.54 1.80 2.03 2.03 2.04 1.77 1.56 1.71 1.89 1.71 1.64 1.55 1.62 1.81 1.72 1.78
1.67 1.66 1.60 1.56 1.52 1.62 2.09 2.35 2.19 1.65 1.48 1.45 1.44 1.44 1.45 1.46 1.56 1.75 1.81 1.75 1.60 1.59 1.76 1.93 2.10 1.98 1.87 1.93 2.27 2.60 2.68 2.70 2.35 1.99 1.91 2.20 1.98 1.89 1.81 1.76 1.85 1.76 1.77
1.42 1.47 1.46 1.41 1.39 1.42 1.79 2.17 2.09 1.62 1.56 1.47 1.42 1.44 1.45 1.36 1.59 1.89 1.93 1.85 1.62 1.47 1.56 1.82 2.04 2.15 2.28 2.46 2.73 3.13 3.28 3.36 3.15 2.59 2.24 2.30 2.17 2.06 2.06 2.02 1.97 1.91 1.83
1.26 1.28 1.34 1.36 1.34 1.36 1.60 1.95 2.07 1.67 1.60 1.51 1.43 1.46 1.66 1.64 1.75 1.86 1.83 1.89 1.88 1.56 1.38 1.47 1.59 1.74 1.84 2.06 2.49 2.73 2.98 3.28 3.19 2.95 2.40 2.33 2.35 2.36 2.59 2.24 1.95 1.82 1.79